Regional Weather Roundup
Issued by NWS

Home | Current Version | Previous Version | Graphics & Text | Print | Product List | Glossary Off
Versions: 1 2 3 4 5 6 7 8 9 10 11 12 13 14 15 16 17 18 19 20 21 22 23 24 25 26 27 28 29 30 31 32 33 34 35 36 37 38 39 40 41 42 43 44 45 46 47 48 49 50

000
ASUS45 KBOU 011410
RWRCO

WEATHER ROUNDUP FOR COLORADO
NATIONAL WEATHER SERVICE DENVER/BOULDER CO
800 AM MDT SAT OCT 01 2016

NOTE: "FAIR" INDICATES FEW OR NO CLOUDS BELOW 12000 FEET WITH NO
SIGNIFICANT WEATHER AND/OR OBSTRUCTIONS TO VISIBILITY.

COZ001>005-013-030-031-011500-
...NORTHWEST COLORADO...

CITY           SKY/WX    TMP DP  RH WIND       PRES   REMARKS
CRAIG          FAIR      40  38  93 CALM      30.26S
HAYDEN         FAIR      45  36  70 E8        30.27S
MEEKER         FAIR      43  40  89 NE3       30.27S
MOUNT WERNER   NOT AVBL
STEAMBOAT SPGS FAIR      37  37  99 CALM      30.30R
WALDEN           N/A     34  32  93 CALM      30.36R
$$

COZ006>008-011-011500-
...WEST CENTRAL VALLEYS...

CITY           SKY/WX    TMP DP  RH WIND       PRES   REMARKS
GRAND JUNCTION FAIR      52  46  80 E8        30.21R
MONTROSE       FAIR      46  39  76 S6        30.28R
EAGLE          CLEAR     37  36  93 CALM      30.35R
RIFLE          FAIR      45  43  93 CALM      30.26R
DELTA          NOT AVBL
NUCLA          FAIR      45  41  87 SE5       30.31R
$$

COZ017>023-064>068-011500-
...SOUTHWEST COLORADO...

CITY           SKY/WX    TMP DP  RH WIND       PRES   REMARKS
DURANGO        FAIR      41  38  89 CALM      30.30R
CORTEZ         FAIR      43  40  89 CALM      30.27R
PAGOSA SPRINGS FAIR      40  40  97 CALM      30.36R
TELLURIDE      CLOUDY    41  37  84 CALM      30.42S
WOLF CREEK PAS FAIR      34  34 100 MISG      30.54S
$$

COZ009-010-012-014-032>034-037-058>063-011500-
...CENTRAL COLORADO...

CITY           SKY/WX    TMP DP  RH WIND       PRES   REMARKS
ASPEN          FAIR      38  35  89 SE3       30.33S
BUENA VISTA    FAIR      42  37  80 W3        30.35R
COPPER MTN     FAIR      41  34  75 CALM      30.52R
BERTHOUD PASS  FAIR      32  23  69 N9        30.54R WCI  24
COTTONWOOD PAS FAIR      46  37  71 CALM      30.42R
GUNNISON       FAIR      34  32  92 CALM      30.39R
KREMMLING      CLOUDY    36  34  93 SE5       30.38R FOG
LEADVILLE      FAIR      33  30  88 N3        30.42R
MONARCH PASS   FOG       36  34  93 W15       30.61S VSB<1/4
SALIDA         FAIR      46  40  79 N5        30.40R
SUNLIGHT       FAIR      43  37  81 SW5       30.49S
WILKERSON PASS FAIR      43  32  65 CALM      30.50S
$$

COZ069>075-011500-
...SAN LUIS VALLEY/SANGRE DE CRISTO MOUNTAINS...

CITY           SKY/WX    TMP DP  RH WIND       PRES   REMARKS
ALAMOSA        FAIR      43  39  86 NW3       30.33R
LA VETA PASS   FAIR      41  36  81 MISG      30.41R
SAGUACHE       FAIR      43  36  75 NW12      30.35R
$$

COZ035-036-038>040-011500-
...NORTHERN COLORADO FRONT RANGE...

CITY           SKY/WX    TMP DP  RH WIND       PRES   REMARKS
DENVER INTL AP FAIR      57  43  59 SW3       30.16R
DMNS CITY PARK   N/A     55  44  66 E8        30.17R
AURORA         MOSUNNY   54  44  70 S7        30.18R
FRONT RANGE AP MOSUNNY   59  45  58 SW5       30.18
ERIE MUNI ARPT FAIR      49  42  79 SW3       30.15S
BOULDER MUN AP FAIR      55  41  58 E3        30.14S
CENTENNIAL     FAIR      53  43  68 CALM      30.18R
BROOMFIELD     MOSUNNY   55  39  54 CALM      30.17R
FORT COLLINS   FAIR      54  46  76 CALM      30.15R
LONGMONT       FAIR      50  45  81 E3        30.16S HAZE
$$

COZ041-046-047-076>085-087-088-011500-
...PIKES PEAK/PALMER DIVIDE AND SOUTHERN FOOTHILLS...

CITY           SKY/WX    TMP DP  RH WIND       PRES   REMARKS
COLO. SPRINGS  FAIR      54  44  69 NW6       30.21R
A. F. ACADEMY  FAIR      48  44  88 N10       30.21S
SCHRIEVER AFB  NOT AVBL
ELLICOTT       NOT AVBL
FALCON         FAIR      58  39  50 NW5       30.24R
FORT CARSON    FAIR      56  44  65 NW7       30.17S
LIMON          FAIR      52  43  71 NW9       30.16S
MONUMENT HILL  FAIR      50  41  71 CALM      30.25S
TRINIDAD       FAIR      53  43  68 SW10      30.19R
$$

COZ042>045-048>051-090-091-011500-
...NORTHEAST COLORADO...

CITY           SKY/WX    TMP DP  RH WIND       PRES   REMARKS
GREELEY ARPT   FAIR      52  45  76 CALM      30.14S
AKRON          FAIR      54  46  74 W7        30.12S
BURLINGTON     FAIR      48  43  82 CALM      30.13S
WRAY           FAIR      48  43  81 CALM      30.12S
STERLING       FAIR      48  45  87 SW5       30.10R
HOLYOKE        FAIR      46  43  87 CALM      30.11S
FORT MORGAN    FAIR      49  44  82 W5        30.13S
$$

COZ086-089-092>099-011500-
...SOUTHEAST COLORADO...

CITY           SKY/WX    TMP DP  RH WIND       PRES   REMARKS
PUEBLO         FAIR      53  45  74 SE5       30.14R
LA JUNTA       FAIR      56  47  71 NW3       30.12R
LAMAR          LGT RAIN  52  46  80 NE3       30.09S
SPRINGFIELD      N/A     57  51  80 W3        30.10S
$$



USA.gov is the U.S. government's official web portal to all federal, state and local government web resources and services.